[[{"header":{"parameterUnit":"m.s-1","parameterCategory":1,"la1":30.2991,"la2":30.254,"lo1":-89.0895,"lo2":-89.0444,"dy":0.0017,"dx":0.0017,"nx":28,"ny":28,"refTime":"2023-08-15T09:00:00:Z","depth":0,"parameterNumber":2,"parameterNumberName":"U-component_of_WINDS"},"data":[0,0,0,0,0,0,0,0,0,0,0,0,0,0,0,0,0,0,0,0,0,0,0,0,0,0,0,0,0,0,0,0,0,0,0,0,0,0,0,0,0,0,0,0,0,0,0,0,0,0,0,0,0,0,0,0,0,0,-1.1804,-1.1804,0,-1.1789,-1.1788,-1.1788,-1.1755,-1.1754,-1.1753,-1.1753,-1.1738,-1.1738,-1.1738,0,0,0,0,0,0,0,0,0,0,0,0,0,-1.1805,-1.1805,-1.1804,-1.1804,-1.1804,-1.1789,-1.1788,-1.1788,-1.1755,-1.1754,-1.1753,-1.1752,-1.1738,-1.1738,-1.1738,0,0,0,0,0,0,0,0,0,0,0,0,0,-1.1799,-1.1805,-1.1804,-1.1785,-1.1783,-1.1789,-1.1788,-1.1788,-1.1755,-1.1754,-1.1753,-1.1752,-1.1738,-1.1738,-1.1738,-1.1761,0,0,-1.1739,-1.174,0,0,0,0,0,0,0,0,-1.1799,-1.1799,-1.1788,-1.1786,-1.1784,-1.1772,-1.1783,-1.1779,-1.1755,-1.1766,-1.1753,-1.1751,-1.175,-1.1749,-1.1749,-1.176,-1.176,-1.1739,-1.174,-1.174,-1.174,0,0,0,0,0,0,0,-1.18,-1.1799,-1.1798,-1.1788,-1.1786,-1.1778,-1.1776,-1.1782,-1.1764,-1.1765,-1.1762,-1.1761,-1.1749,-1.1749,-1.1748,-1.176,-1.1739,-1.174,-1.174,-1.174,-1.1789,-1.179,0,0,0,0,0,0,-1.1803,-1.18,-1.1798,-1.1797,-1.1789,-1.1778,-1.1776,-1.1777,-1.1764,-1.1761,-1.1762,-1.1759,-1.1748,-1.1748,-1.1748,-1.1773,-1.174,-1.174,-1.174,-1.1788,-1.1789,-1.179,0,0,0,0,0,0,-1.1803,-1.1803,-1.1799,-1.1798,-1.1797,-1.178,-1.1781,-1.1778,-1.1777,-1.1762,-1.1758,-1.1765,-1.1748,-1.1747,-1.1758,-1.1772,-1.174,-1.1741,-1.1786,-1.1788,-1.179,-1.1825,0,0,0,0,0,0,-1.1803,-1.1803,-1.1812,-1.1798,-1.1797,-1.181,-1.1782,-1.1778,-1.1778,-1.1774,-1.1763,-1.1761,-1.1747,-1.1758,-1.1758,-1.1772,-1.1741,-1.1785,-1.1787,-1.1789,-1.1823,-1.1828,-1.1832,0,0,0,0,0,-1.1803,-1.1822,-1.1812,-1.1812,-1.1807,-1.181,-1.181,-1.1793,-1.1779,-1.1787,-1.1777,-1.1761,-1.1771,-1.1759,-1.1759,-1.1774,-1.1784,-1.1787,-1.1789,-1.182,-1.1827,-1.1832,0,0,0,0,0,0,-1.1838,-1.182,-1.1809,-1.1824,-1.1819,-1.1805,-1.1815,-1.18,-1.1799,-1.1796,-1.1776,-1.1774,-1.1788,-1.1782,-1.1769,-1.1795,-1.1775,-1.1777,-1.1798,-1.1804,-1.1809,-1.181,-1.1741,0,0,0,0,0,-1.1847,-1.1851,-1.1836,-1.1851,-1.1849,-1.1832,-1.1833,-1.1821,-1.1815,-1.1813,-1.1803,-1.1798,-1.18,-1.1802,-1.1803,-1.1821,-1.1819,-1.1832,-1.1836,-1.184,-1.1843,-1.1853,-1.1858,-1.1798,-1.1798,-1.1798,0,0,-1.1867,-1.1858,-1.1862,-1.1858,-1.1852,-1.1857,-1.1831,-1.1837,-1.184,-1.1814,-1.1823,-1.1816,-1.1809,-1.1824,-1.183,-1.182,-1.1859,-1.1843,-1.1847,-1.1847,-1.1856,-1.1861,-1.1866,-1.18,-1.18,-1.1799,0,0,-1.1905,-1.1898,-1.191,-1.1905,-1.1897,-1.1886,-1.1889,-1.1877,-1.1871,-1.188,-1.186,-1.1864,-1.1868,-1.1864,-1.1862,-1.1899,-1.1883,-1.1899,-1.1925,-1.1934,-1.1939,-1.1943,-1.1956,-1.1961,-1.1902,-1.1902,-1.1902,0,-1.1931,-1.1937,-1.1918,-1.1926,-1.1925,-1.19,-1.1912,-1.1908,-1.1901,-1.1901,-1.1889,-1.1893,-1.1887,-1.19,-1.1909,-1.1909,-1.1912,-1.1901,-1.194,-1.1943,-1.1947,-1.1959,-1.1964,-1.1904,-1.1904,-1.1904,-1.1903,0,-1.1969,-1.1973,-1.1984,-1.1977,-1.1977,-1.1987,-1.197,-1.1972,-1.196,-1.195,-1.196,-1.1951,-1.195,-1.1952,-1.194,-1.1964,-1.1958,-1.1943,-1.1922,-1.1955,-1.1966,-1.1971,-1.1907,-1.1906,-1.1906,-1.1905,0,0,-1.2029,-1.2011,-1.2016,-1.2012,-1.2001,-1.2005,-1.2013,-1.2012,-1.2014,-1.201,-1.2017,-1.202,-1.2007,-1.2005,-1.1992,-1.2001,-1.203,-1.1985,-1.1984,-1.1994,-1.2056,-1.2067,-1.2073,-1.202,-1.2021,-1.2021,-1.2057,0,-1.2064,-1.2078,-1.2061,-1.2079,-1.2083,-1.2059,-1.2067,-1.2061,-1.2052,-1.2055,-1.2045,-1.2048,-1.2029,-1.2028,-1.2035,-1.2025,-1.2042,-1.2022,-1.2026,-1.2027,-1.2029,-1.2079,-1.2091,-1.2125,-1.2061,-1.2061,-1.2062,0,-1.2108,-1.2106,-1.2123,-1.2111,-1.2112,-1.2119,-1.2116,-1.2119,-1.2112,-1.2105,-1.2103,-1.2088,-1.2095,-1.2075,-1.2085,-1.2072,-1.2073,-1.2068,-1.2069,-1.2069,-1.2047,-1.2081,-1.2135,-1.214,-1.2069,-1.2068,-1.2068,0,-1.215,-1.2152,-1.2162,-1.216,-1.2146,-1.2152,-1.2146,-1.2138,-1.2138,-1.2136,-1.2136,-1.2134,-1.2134,-1.2133,-1.2118,-1.2105,-1.2131,-1.2109,-1.2125,-1.2126,-1.2132,-1.2132,-1.2188,-1.2132,-1.2132,-1.2132,-1.2132,0,-1.2192,-1.2204,-1.2181,-1.2188,-1.22,-1.2181,-1.2194,-1.2186,-1.2179,-1.2184,-1.2164,-1.2169,-1.2148,-1.2151,-1.2139,-1.215,-1.215,-1.2144,-1.2141,-1.2146,-1.2147,-1.2147,-1.2144,-1.2133,-1.2133,-1.2133,-1.2132,0,-1.2242,-1.2227,-1.2237,-1.2223,-1.222,-1.2229,-1.2217,-1.2223,-1.2213,-1.2219,-1.2219,-1.2203,-1.2205,-1.219,-1.219,-1.2182,-1.2198,-1.2191,-1.22,-1.2198,-1.2215,-1.2214,-1.2273,-1.228,-1.222,-1.2221,-1.2221,0,-1.227,-1.2278,-1.2265,-1.2267,-1.2262,-1.2265,-1.2265,-1.2246,-1.2247,-1.224,-1.2246,-1.2247,-1.2246,-1.2251,-1.2239,-1.2239,-1.2232,-1.2252,-1.2231,-1.2236,-1.2232,-1.2232,-1.2233,-1.2257,-1.2258,-1.2258,-1.2259,0,-1.2321,-1.2313,-1.2314,-1.2312,-1.2312,-1.2309,-1.2305,-1.2308,-1.2288,-1.229,-1.2292,-1.2291,-1.2291,-1.2292,-1.2289,-1.2283,-1.2268,-1.2265,-1.2269,-1.2275,-1.228,-1.2278,-1.2213,-1.2264,-1.2264,-1.2263,-1.2263,-1.2263,-1.2361,-1.2367,-1.2359,-1.236,-1.2355,-1.2352,-1.2356,-1.2346,-1.2348,-1.2345,-1.2334,-1.2338,-1.2331,-1.2326,-1.2322,-1.2325,-1.2315,-1.232,-1.2322,-1.2323,-1.2327,-1.2279,-1.2324,-1.2324,-1.2324,-1.2324,-1.2323,0,-1.2411,-1.2405,-1.2406,-1.2401,-1.2402,-1.2387,-1.2382,-1.2384,-1.2387,-1.2382,-1.2381,-1.2384,-1.2384,-1.2373,-1.2372,-1.2376,-1.2369,-1.2377,-1.2377,-1.2376,-1.2335,-1.2332,-1.2383,-1.2383,-1.2383,-1.2383,-1.2383,-1.2383,-1.2438,-1.2448,-1.2439,-1.2446,-1.2439,-1.2443,-1.2441,-1.2438,-1.2434,-1.2437,-1.2437,-1.2429,-1.2421,-1.242,-1.242,-1.2416,-1.2417,-1.2427,-1.2421,-1.2384,-1.2378,-1.2373,-1.237,-1.2427,-1.2427,-1.2461,-1.2462,-1.2462]},{"header":{"parameterUnit":"m.s-1","parameterCategory":1,"la1":30.2991,"la2":30.254,"lo1":-89.0895,"lo2":-89.0444,"dy":0.0017,"dx":0.0017,"nx":28,"ny":28,"refTime":"2023-08-15T09:00:00:Z","depth":0,"parameterNumber":3,"parameterNumberName":"V-component_of_WINDS"},"data":[0,0,0,0,0,0,0,0,0,0,0,0,0,0,0,0,0,0,0,0,0,0,0,0,0,0,0,0,0,0,0,0,0,0,0,0,0,0,0,0,0,0,0,0,0,0,0,0,0,0,0,0,0,0,0,0,0,0,-2.9229,-2.9229,0,-2.9288,-2.9288,-2.9289,-2.9295,-2.9294,-2.9293,-2.9293,-2.935,-2.9352,-2.9354,0,0,0,0,0,0,0,0,0,0,0,0,0,-2.9118,-2.912,-2.9228,-2.9229,-2.923,-2.9288,-2.9288,-2.9289,-2.9295,-2.9294,-2.9293,-2.9293,-2.9349,-2.9352,-2.9354,0,0,0,0,0,0,0,0,0,0,0,0,0,-2.917,-2.912,-2.9228,-2.924,-2.9241,-2.9287,-2.9288,-2.9289,-2.9295,-2.9294,-2.9293,-2.9292,-2.9348,-2.9352,-2.9355,-2.9392,0,0,-2.9364,-2.9366,0,0,0,0,0,0,0,0,-2.9167,-2.9174,-2.9237,-2.9239,-2.9241,-2.9283,-2.927,-2.9324,-2.9295,-2.9274,-2.9293,-2.9292,-2.9328,-2.9333,-2.9346,-2.9395,-2.9397,-2.9364,-2.9366,-2.9368,-2.9369,0,0,0,0,0,0,0,-2.9164,-2.9172,-2.9252,-2.9238,-2.924,-2.9241,-2.9248,-2.928,-2.9306,-2.9276,-2.9277,-2.9284,-2.9329,-2.9343,-2.9347,-2.9398,-2.9364,-2.9367,-2.9369,-2.937,-2.9482,-2.9483,0,0,0,0,0,0,-2.9158,-2.9169,-2.925,-2.9254,-2.9201,-2.9244,-2.9251,-2.927,-2.9305,-2.931,-2.9285,-2.9284,-2.9338,-2.9344,-2.9349,-2.9397,-2.9368,-2.9371,-2.9372,-2.9481,-2.9482,-2.9484,0,0,0,0,0,0,-2.9156,-2.9165,-2.9247,-2.9211,-2.9222,-2.9247,-2.9268,-2.9272,-2.9286,-2.9312,-2.9316,-2.9294,-2.9337,-2.9345,-2.9382,-2.9399,-2.9372,-2.9375,-2.948,-2.9481,-2.9483,-2.9491,0,0,0,0,0,0,-2.9153,-2.9164,-2.918,-2.9212,-2.9224,-2.928,-2.9269,-2.9274,-2.9292,-2.9291,-2.9322,-2.9326,-2.9337,-2.9377,-2.9385,-2.9403,-2.9377,-2.9478,-2.9481,-2.9482,-2.949,-2.9493,-2.9496,0,0,0,0,0,-2.9149,-2.9179,-2.918,-2.919,-2.9243,-2.9281,-2.9288,-2.9301,-2.9293,-2.9308,-2.9325,-2.9325,-2.9396,-2.9381,-2.939,-2.9409,-2.9477,-2.948,-2.9482,-2.9488,-2.9493,-2.9496,0,0,0,0,0,0,-2.9146,-2.9183,-2.9185,-2.9227,-2.9251,-2.9282,-2.9301,-2.9305,-2.9331,-2.9329,-2.9344,-2.935,-2.9387,-2.9401,-2.9385,-2.9447,-2.9436,-2.944,-2.9437,-2.9441,-2.9444,-2.9441,-2.938,0,0,0,0,0,-2.9151,-2.9179,-2.9209,-2.9243,-2.9255,-2.9276,-2.9293,-2.9301,-2.9327,-2.9336,-2.9356,-2.9379,-2.9407,-2.9425,-2.9451,-2.9492,-2.9499,-2.9509,-2.9512,-2.9514,-2.9518,-2.9542,-2.9547,-2.9492,-2.9492,-2.9492,0,0,-2.916,-2.9184,-2.92,-2.9243,-2.9263,-2.9292,-2.9285,-2.9315,-2.9336,-2.9341,-2.9378,-2.9393,-2.942,-2.9459,-2.9477,-2.9472,-2.9535,-2.9518,-2.9519,-2.9522,-2.9545,-2.955,-2.9555,-2.9493,-2.9493,-2.9493,0,0,-2.9192,-2.9212,-2.9243,-2.9264,-2.9294,-2.9308,-2.9316,-2.9347,-2.9357,-2.9395,-2.9399,-2.9424,-2.9471,-2.9491,-2.9507,-2.9547,-2.9549,-2.9555,-2.9572,-2.9595,-2.9599,-2.9603,-2.9618,-2.9624,-2.9559,-2.9559,-2.9559,0,-2.9199,-2.9244,-2.9258,-2.929,-2.9309,-2.9315,-2.9346,-2.9365,-2.9402,-2.9415,-2.9408,-2.9468,-2.9487,-2.9532,-2.9542,-2.9554,-2.9563,-2.9552,-2.9597,-2.9602,-2.9605,-2.962,-2.9626,-2.9559,-2.9559,-2.9559,-2.9559,0,-2.9252,-2.9283,-2.9304,-2.9342,-2.9363,-2.9394,-2.9413,-2.9432,-2.9438,-2.9453,-2.9491,-2.9514,-2.9546,-2.9557,-2.9563,-2.9603,-2.9599,-2.9595,-2.9583,-2.9611,-2.9626,-2.9631,-2.956,-2.956,-2.956,-2.956,0,0,-2.9284,-2.9331,-2.9338,-2.9356,-2.9391,-2.9414,-2.9445,-2.9478,-2.9495,-2.952,-2.9547,-2.9587,-2.9584,-2.9602,-2.961,-2.963,-2.9662,-2.9624,-2.9625,-2.9631,-2.9709,-2.9712,-2.9719,-2.9663,-2.9664,-2.9665,-2.9707,0,-2.9321,-2.9379,-2.9393,-2.9442,-2.9471,-2.9477,-2.9505,-2.9528,-2.9543,-2.9569,-2.9584,-2.9613,-2.9606,-2.9618,-2.9637,-2.9654,-2.9678,-2.9651,-2.9688,-2.9689,-2.9682,-2.9726,-2.973,-2.9768,-2.9712,-2.9713,-2.9714,0,-2.9372,-2.94,-2.9452,-2.9485,-2.9497,-2.9522,-2.9553,-2.9578,-2.9605,-2.9614,-2.9635,-2.9642,-2.9674,-2.9661,-2.9705,-2.9687,-2.9702,-2.9713,-2.9715,-2.9719,-2.9704,-2.9733,-2.9781,-2.9787,-2.9723,-2.9722,-2.9721,0,-2.9392,-2.9443,-2.9481,-2.9496,-2.9534,-2.9551,-2.9567,-2.9594,-2.9613,-2.964,-2.9653,-2.9682,-2.9699,-2.9722,-2.9736,-2.9725,-2.978,-2.9767,-2.9789,-2.9788,-2.9801,-2.98,-2.9853,-2.9809,-2.9809,-2.9809,-2.9809,0,-2.9432,-2.9464,-2.9491,-2.9514,-2.955,-2.9566,-2.9601,-2.9617,-2.9641,-2.9667,-2.9674,-2.9698,-2.9715,-2.9742,-2.9753,-2.9789,-2.9796,-2.9804,-2.9807,-2.9804,-2.9803,-2.9815,-2.9813,-2.981,-2.981,-2.981,-2.9809,0,-2.9461,-2.948,-2.9522,-2.9555,-2.9564,-2.9589,-2.9617,-2.964,-2.9655,-2.9688,-2.9697,-2.972,-2.9752,-2.9768,-2.9807,-2.9815,-2.9856,-2.9856,-2.9847,-2.9849,-2.9869,-2.9868,-2.9932,-2.9942,-2.9891,-2.9892,-2.9892,0,-2.9486,-2.9511,-2.9547,-2.9566,-2.9583,-2.9613,-2.9634,-2.965,-2.967,-2.9704,-2.9723,-2.9755,-2.9782,-2.9833,-2.9852,-2.9882,-2.9884,-2.9905,-2.9889,-2.9886,-2.9886,-2.9885,-2.9888,-2.9908,-2.9908,-2.9909,-2.9909,0,-2.9528,-2.9537,-2.9567,-2.96,-2.9624,-2.9651,-2.9676,-2.9691,-2.9712,-2.9734,-2.9768,-2.9789,-2.983,-2.9862,-2.9894,-2.991,-2.9913,-2.9914,-2.9921,-2.9919,-2.9913,-2.9918,-2.9856,-2.9913,-2.9912,-2.9912,-2.9912,-2.9912,-2.9557,-2.958,-2.961,-2.9643,-2.9664,-2.9689,-2.9713,-2.9731,-2.976,-2.9796,-2.9803,-2.9838,-2.9865,-2.9909,-2.9926,-2.9953,-2.9949,-2.9958,-2.9961,-2.9963,-2.9965,-2.9908,-2.9959,-2.9959,-2.9959,-2.9959,-2.9958,0,-2.9601,-2.9621,-2.9651,-2.9688,-2.9714,-2.9716,-2.9745,-2.9766,-2.9798,-2.9824,-2.9851,-2.989,-2.9921,-2.9944,-2.9976,-2.9993,-2.9996,-3.0001,-3.0001,-3.0005,-2.9966,-2.9958,-2.9999,-2.9999,-2.9999,-2.9999,-2.9999,-2.9999,-2.9627,-2.9667,-2.9679,-2.973,-2.9749,-2.9785,-2.9802,-2.9825,-2.9845,-2.9889,-2.9916,-2.9931,-2.9955,-2.9989,-3.0018,-3.0024,-3.0035,-3.0041,-3.0047,-3.0011,-3.0007,-3.0003,-2.9995,-3.0043,-3.0044,-3.0083,-3.0084,-3.0084]}]]